Location: Downe
(51.3167°N, 0.0500°E)
Time: 19:37:23
(UTC+00:00)

Envisat - Visible Passes

Search period start: 22 January 2020 00:00
Search period end: 01 February 2020 00:00
Orbit: 764 x 766 km, 98.1° (Epoch: 22 January)

Date Brightness Start Highest point End Pass type
(mag) Time Alt. Az. Time Alt. Az. Time Alt. Az.
22 Jan 4.2 06:23:10 10° NNE 06:28:06 46° E 06:32:59 10° S visible
22 Jan 3.1 17:42:51 10° SSE 17:47:56 82° WSW 17:53:03 10° NNW visible
22 Jan 6.1 19:25:19 10° WSW 19:27:47 13° W 19:30:16 10° NW visible
23 Jan 5.5 05:46:55 10° NE 05:51:02 24° E 05:55:07 10° SE visible
23 Jan 3.2 17:06:18 10° SE 17:11:13 52° ENE 17:16:10 10° N visible
23 Jan 5.2 18:46:17 10° SSW 18:50:32 26° W 18:54:48 10° NW visible
24 Jan 6.3 05:11:46 10° ENE 05:13:45 12° E 05:15:44 10° ESE visible
24 Jan 3.3 06:48:33 10° NNE 06:53:40 75° ESE 06:58:45 10° S visible
24 Jan 3.9 18:08:33 10° S 18:13:29 51° W 18:18:28 10° NNW visible
25 Jan 4.6 06:11:59 10° NNE 06:16:45 38° E 06:21:28 10° SSE visible
25 Jan 3.0 17:31:33 10° SSE 17:36:38 82° ENE 17:41:45 10° NNW visible
25 Jan 5.9 19:13:08 10° SW 19:16:19 17° W 19:19:33 10° NW visible
26 Jan 5.8 05:35:54 10° NE 05:39:36 20° E 05:43:17 10° SE visible
26 Jan 4.9 18:34:37 10° SSW 18:39:08 32° W 18:43:42 10° NNW visible
27 Jan 3.6 06:37:17 10° NNE 06:42:21 62° E 06:47:23 10° S visible
27 Jan 3.6 17:57:07 10° S 18:02:09 63° WSW 18:07:14 10° NNW visible
28 Jan 5.0 06:00:50 10° NNE 06:05:22 31° E 06:09:52 10° SSE visible
28 Jan 3.0 17:20:19 10° SSE 17:25:22 68° ENE 17:30:26 10° N visible
28 Jan 5.7 19:01:10 10° SW 19:04:54 20° W 19:08:38 10° NW visible
29 Jan 6.0 05:25:01 10° NE 05:28:10 16° E 05:31:19 10° SE visible
29 Jan 3.0 07:02:45 10° NNE 07:07:52 84° WNW 07:12:57 10° SSW visible
29 Jan 4.5 18:23:01 10° SSW 18:27:45 39° W 18:32:32 10° NNW visible
30 Jan 4.0 06:26:03 10° NNE 06:31:01 50° E 06:35:57 10° S visible
30 Jan 3.2 17:45:45 10° S 17:50:50 77° WSW 17:55:58 10° NNW visible
30 Jan 6.3 19:28:40 10° WSW 19:30:45 12° W 19:32:50 10° WNW visible
31 Jan 5.4 05:49:43 10° NE 05:53:58 26° E 05:58:12 10° SSE visible
31 Jan 5.4 18:49:21 10° SW 18:53:28 25° W 18:57:37 10° NW visible
